SCP
0 0 0 0 0 0 0 0 0 0 0 0 0 0 0 0 0 0 0 0 0 0
0 0 0 0 0 0 0 0 0 0 0 0 0 0 0 0 0 0 0 0 0 0
0 0 0 0 0 0 0 0 0 0 0 0 0 0 0 0 0 0 0 0 0 0
0 0 0 0 0 0 0 0 0 0 0 0 0 0 0 0 0 0 0 0 0 0
0 0 0 0 0 0 0 0 0 0 0 0 0 0 0 0 0 0 0 0 0 0
0 0 0 0 0 0 0 0 0 0 0 0 0 0 0 0 0 0 0 0 0 0
0 0 0 0 0 0 0 0 0 0 0 0 0 0 0 0 0 0 0 0 0 0
0 0 0 0 0 0 0 0 0 0 0 0 0 0 0 0 0 0 0 0 0 0
0 0 0 0 0 0 0 0 0 0 0 0 0 0 0 0 0 0 0 0 0 0
0 0 0 0 0 0 0 0 0 0 0 0 0 0 0 0 0 0 0 0 0 0
0 0 0 0 0 0 0 0 0 0 0 0 0 0 0 0 0 0 0 0 0 0
0 0 0 0 0 0 0 0 0 0 0 0 0 0 0 0 0 0 0 0 0 0
0 0 0 0 0 0 0 0 0 0 0 0 0 0 0 0 0 0 0 0 0 0
0 0 0 0 0 0 0 0 0 0 0 0 0 0 0 0 0 0 0 0 0 0
Wind_Speed_500mb
69 64 62 59 54 49 44 46 45 50 47 47 46 48 46 51 54 57 52 52 52 50
72 70 66 61 53 51 46 51 53 54 50 48 48 51 50 53 56 56 45 47 43 42
78 76 70 66 58 58 61 51 53 50 50 50 52 51 48 47 47 45 45 45 47 47
76 75 71 68 65 65 62 56 56 54 52 48 48 49 49 47 48 43 44 40 42 46
71 68 64 61 60 54 46 45 43 43 47 48 50 51 48 47 49 48 41 33 36 34
54 50 47 43 39 37 36 35 35 38 41 39 37 41 40 35 27 25 28 33 39 32
42 38 33 34 34 32 32 32 33 32 30 25 20 19 18 17 21 24 26 28 30 26
40 38 35 32 30 28 27 24 20 18 15 16 17 19 19 24 27 30 31 32 27 27
38 34 31 29 26 21 18 16 17 16 18 21 22 24 23 20 20 22 24 24 24 25
36 31 27 23 21 19 20 20 22 21 21 20 21 21 22 24 25 26 26 27 26 25
32 29 27 26 25 25 25 25 25 22 20 20 21 21 24 24 25 25 27 26 26 24
32 30 30 29 29 29 27 26 25 22 22 22 23 24 24 26 25 24 27 27 26 25
31 31 31 32 30 28 28 27 24 21 21 23 25 26 25 25 26 24 27 29 29 28
36 34 32 31 30 30 29 27 24 24 25 25 25 25 25 24 26 27 30 34 34 34
Wind_Direction_500mb
241 244 247 250 249 248 248 249 249 247 250 254 259 258 260 261 264 267 258 270 256 263
239 242 244 246 238 236 239 245 244 247 253 252 249 252 255 257 256 261 264 267 259 256
232 236 238 239 236 236 246 243 243 243 243 245 252 252 250 252 257 247 260 259 260 261
229 234 238 241 239 238 247 241 243 244 247 248 247 247 247 247 244 251 253 259 260 256
231 233 235 238 242 246 247 246 250 253 252 250 251 253 257 255 255 258 256 257 248 258
222 224 225 226 229 234 242 244 247 250 254 255 252 255 256 255 256 256 251 250 257 251
206 210 213 216 219 224 230 234 237 238 241 246 248 246 241 250 248 240 243 243 253 244
197 200 205 211 217 223 230 237 240 247 241 233 244 238 245 237 237 247 249 254 237 231
197 203 208 214 220 227 237 238 243 240 234 241 236 231 232 239 236 231 225 231 239 247
201 207 214 220 225 227 225 229 230 229 226 227 229 231 228 231 234 236 237 237 241 243
206 211 215 218 220 221 224 226 228 228 230 231 230 230 236 237 243 247 246 241 233 228
208 213 215 217 218 222 224 227 230 231 231 231 230 232 235 239 241 241 241 236 230 223
213 218 218 217 217 219 224 224 228 233 238 240 241 243 243 241 242 239 241 239 232 228
213 217 219 221 221 222 223 225 227 231 234 239 240 245 247 248 246 243 243 239 234 232
Wind_Speed_850mb
69 64 62 59 54 49 44 46 45 50 47 47 46 48 46 51 54 57 52 52 52 50
72 70 66 61 53 51 46 51 53 54 50 48 48 51 50 53 56 56 45 47 43 42
78 76 70 66 58 58 61 51 53 50 50 50 52 51 48 47 47 45 45 45 47 47
76 75 71 68 65 65 62 56 56 54 52 48 48 49 49 47 48 43 44 40 42 46
71 68 64 61 60 54 46 45 43 43 47 48 50 51 48 47 49 48 41 33 36 34
54 50 47 43 39 37 36 35 35 38 41 39 37 41 40 35 27 25 28 33 39 32
42 38 33 34 34 32 32 32 33 32 30 25 20 19 18 17 21 24 26 28 30 26
40 38 35 32 30 28 27 24 20 18 15 16 17 19 19 24 27 30 31 32 27 27
38 34 31 29 26 21 18 16 17 16 18 21 22 24 23 20 20 22 24 24 24 25
36 31 27 23 21 19 20 20 22 21 21 20 21 21 22 24 25 26 26 27 26 25
32 29 27 26 25 25 25 25 25 22 20 20 21 21 24 24 25 25 27 26 26 24
32 30 30 29 29 29 27 26 25 22 22 22 23 24 24 26 25 24 27 27 26 25
31 31 31 32 30 28 28 27 24 21 21 23 25 26 25 25 26 24 27 29 29 28
36 34 32 31 30 30 29 27 24 24 25 25 25 25 25 24 26 27 30 34 34 34
Wind_Direction_850mb
241 244 247 250 249 248 248 249 249 247 250 254 259 258 260 261 264 267 258 270 256 263
239 242 244 246 238 236 239 245 244 247 253 252 249 252 255 257 256 261 264 267 259 256
232 236 238 239 236 236 246 243 243 243 243 245 252 252 250 252 257 247 260 259 260 261
229 234 238 241 239 238 247 241 243 244 247 248 247 247 247 247 244 251 253 259 260 256
231 233 235 238 242 246 247 246 250 253 252 250 251 253 257 255 255 258 256 257 248 258
222 224 225 226 229 234 242 244 247 250 254 255 252 255 256 255 256 256 251 250 257 251
206 210 213 216 219 224 230 234 237 238 241 246 248 246 241 250 248 240 243 243 253 244
197 200 205 211 217 223 230 237 240 247 241 233 244 238 245 237 237 247 249 254 237 231
197 203 208 214 220 227 237 238 243 240 234 241 236 231 232 239 236 231 225 231 239 247
201 207 214 220 225 227 225 229 230 229 226 227 229 231 228 231 234 236 237 237 241 243
206 211 215 218 220 221 224 226 228 228 230 231 230 230 236 237 243 247 246 241 233 228
208 213 215 217 218 222 224 227 230 231 231 231 230 232 235 239 241 241 241 236 230 223
213 218 218 217 217 219 224 224 228 233 238 240 241 243 243 241 242 239 241 239 232 228
213 217 219 221 221 222 223 225 227 231 234 239 240 245 247 248 246 243 243 239 234 232